Autodesk Price to Free Cash Flow Ratio 2006-2021 | ADSK

Historical price to free cash flow ratio values for Autodesk (ADSK) since 2006. For more information on how our historical price data is adjusted see the Stock Price Adjustment Guide.
Autodesk Price to Free Cash Flow Ratio Historical Data
Date Stock Price TTM FCF per Share Price to FCF Ratio
2021-09-22 286.42 43.11
2021-07-31 321.13 $6.64 48.34
2021-04-30 291.91 $6.09 47.90
2021-01-31 277.43 $6.06 45.77
2020-10-31 235.54 $6.27 37.57
2020-07-31 236.43 $5.95 39.76
2020-04-30 187.13 $6.57 28.48
2020-01-31 196.85 $6.12 32.16
2019-10-31 147.36 $4.40 33.52
2019-07-31 156.17 $3.31 47.16
2019-04-30 178.21 $2.51 70.98
2019-01-31 147.20 $1.42 103.91
2018-10-31 129.25 $0.38 337.38
2018-07-31 128.44 $-0.03 0.00
2018-04-30 125.90 $-0.55 0.00
2018-01-31 115.62 $-0.23 0.00
2017-10-31 124.96 $-0.52 0.00
2017-07-31 110.79 $-0.29 0.00
2017-04-30 90.07 $-0.05 0.00
2017-01-31 81.34 $0.42 193.34
2016-10-31 72.28 $1.01 71.28
2016-07-31 59.45 $1.39 42.87
2016-04-30 59.82 $1.83 32.77
2016-01-31 46.82 $1.51 30.98
2015-10-31 55.19 $1.93 28.54
2015-07-31 50.58 $2.10 24.14
2015-04-30 56.83 $2.16 26.29
2015-01-31 54.01 $2.72 19.82
2014-10-31 57.54 $2.44 23.62
2014-07-31 53.35 $2.31 23.07
2014-04-30 48.02 $2.19 21.91
2014-01-31 51.25 $2.17 23.57
2013-10-31 39.90 $2.04 19.60
2013-07-31 35.39 $2.31 15.32
2013-04-30 39.38 $2.49 15.82
2013-01-31 38.88 $2.17 17.92
2012-10-31 31.85 $2.23 14.26
2012-07-31 33.92 $2.20 15.45
2012-04-30 39.37 $2.29 17.19
2012-01-31 36.00 $2.19 16.45
2011-10-31 34.60 $2.21 15.65
2011-07-31 34.40 $2.10 16.40
2011-04-30 44.98 $2.06 21.79
2011-01-31 40.68 $2.19 18.59
2010-10-31 36.20 $2.03 17.85
2010-07-31 29.54 $1.74 17.02
2010-04-30 33.99 $1.44 23.68
2010-01-31 23.79 $0.93 25.67
2009-10-31 24.93 $0.68 36.40
2009-07-31 21.81 $0.90 24.32
2009-04-30 19.94 $1.56 12.77
2009-01-31 16.56 $2.24 7.39
2008-10-31 21.31 $2.78 7.68
2008-07-31 31.89 $3.03 10.52
2008-04-30 38.00 $2.73 13.92
2008-01-31 41.15 $2.75 14.97
2007-10-31 48.90 $2.66 18.41
2007-07-31 42.37 $2.54 16.70
2007-04-30 41.27 $2.66 15.51
2007-01-31 43.72 $2.23 19.64
2006-10-31 36.75 $3.08 11.92
Sector Industry Market Cap Revenue
Computer and Technology Computer Software $62.350B $3.790B
Autodesk, Inc., is a leader in 3D design, engineering and entertainment software. Since its introduction of AutoCAD software in 1982, Autodesk continues to develop the broadest portfolio of 3D software for global markets. Customers across the manufacturing, architecture, building, construction, and media and entertainment industries-including the last 19 Academy Award winners for Best Visual Effects-use Autodesk software to design, visualize, and simulate their ideas before they're ever built or created. From blockbuster visual effects and buildings that create their own energy, to electric cars and the batteries that power them, the work of our 3D software customers is everywhere you look. Through their apps for iPhone, iPad, iPod, and Android, they're also making design technology accessible to professional designers and amateur designers, homeowners, students, and casual creators - anyone who wants to create and share their ideas with the world.
Stock Name Country Market Cap PE Ratio
Microsoft (MSFT) United States $2211.632B 36.93
Adobe (ADBE) United States $305.511B 65.84
Salesforce, Inc (CRM) United States $252.797B 75.50
Oracle (ORCL) United States $235.949B 20.37
SAP SE (SAP) Germany $170.971B 21.75
Intuit (INTU) United States $151.402B 73.92
Dassault Systemes SA (DASTY) France $78.076B 68.55
VMware (VMW) United States $58.173B 27.35
Synopsys (SNPS) United States $48.999B 66.94
Cadence Design Systems (CDNS) United States $44.542B 62.38
ANSYS (ANSS) United States $31.097B 62.53
SS&C Technologies Holdings (SSNC) United States $17.702B 15.87
Nuance Communications (NUAN) United States $17.355B 153.28
PTC (PTC) United States $14.173B 49.48
Citrix Systems (CTXS) United States $13.703B 32.25
Open Text (OTEX) Canada $13.691B 15.60
Pegasystems (PEGA) United States $10.544B 0.00
Manhattan Associates (MANH) United States $9.893B 105.43
Aspen Technology (AZPN) United States $8.430B 37.40
Trend Micro (TMICY) Japan $7.949B 29.73
Descartes Systems Group (DSGX) Canada $6.981B 99.40
MicroStrategy (MSTR) United States $5.735B 106.40
BlackBerry (BB) Canada $5.347B 235.75
Cornerstone OnDemand (CSOD) United States $3.822B 22.19
ACI Worldwide (ACIW) United States $3.617B 21.09
CommVault Systems (CVLT) United States $3.384B 87.82
Blackbaud (BLKB) United States $3.330B 56.78
Verint Systems (VRNT) United States $2.850B 20.65
Progress Software (PRGS) United States $1.970B 15.21
QAD (QADB) United States $1.826B 120.75
Bottomline Technologies (EPAY) United States $1.823B 173.70
PROS Holdings (PRO) United States $1.678B 0.00
Sapiens (SPNS) Israel $1.544B 27.63
OptimizeRx (OPRX) United States $1.248B 644.18
Avid Technology (AVID) United States $1.231B 30.68
Canaan (CAN) China $1.153B 0.00
Magic Software Enterprises (MGIC) Israel $0.978B 23.75
Simulations Plus (SLP) United States $0.809B 70.47
American Software (AMSWA) United States $0.793B 85.07
Icad Inc (ICAD) United States $0.258B 0.00
Smith Micro Software (SMSI) United States $0.245B 0.00
ServiceSource (SREV) United States $0.134B 0.00
Park City (PCYG) United States $0.103B 48.18
Neonode (NEON) Sweden $0.070B 0.00
BSQUARE (BSQR) United States $0.046B 0.00
NetSol Technologies (NTWK) United States $0.043B 17.18
GSE Systems (GVP) United States $0.027B 0.00